Torna al catalogo

FENGYUN 1C DEB

AttivoPO
NORAD 36204·DEBRIS·🇨🇳 China

Lanciato May 10, 1999 da Taiyuan Satellite Launch Center

Loading…

Prossimi Passaggi (prossime 24 ore)

TLE

AggiornatoSource: Space-Track

Epoca: Sep 13, 2026, 04:25 UTC

1 36204U 99025DUD 26256.18409912  .00001840  00000-0  64737-3 0  9998
2 36204  99.3029  19.2676 0019562  88.8756 271.4669 14.36132365983655

Traccia FENGYUN 1C DEB in tempo reale con AllMySat

Download on the App Store